OSCAR 7 1 07530U 74089B 22222.91392576 -.00000043 00000-0 19667-4 0 9996 2 07530 101.9083 202.9635 0011930 299.1133 79.5764 12.53656254184299 OSCAR 11 (UoSAT 2) 1 14781U 84021B 22222.74052980 .00000630 00000-0 82159-4 0 9999 2 14781 97.6209 207.7116 0009413 135.7074 224.4895 14.83747289 48092 OSCAR 19 (LUSAT) 1 20442U 90005G 22223.11913252 .00000051 00000-0 35453-4 0 9991 2 20442 98.7980 188.8274 0012039 13.9398 346.2116 14.33076145700993 EYESAT A 1 22825U 93061C 22222.52429693 .00000047 00000-0 35909-4 0 9999 2 22825 98.8843 254.6968 0007396 251.7868 108.2509 14.30184760505888 ITAMSAT 1 22826U 93061D 22222.53441887 .00000060 00000-0 40762-4 0 9998 2 22826 98.8787 254.5831 0008040 236.7060 123.3352 14.30532186506141 RADIO ROSTO 1 23439U 94085A 22222.94131302 -.00000039 00000-0 10000-3 0 9997 2 23439 64.8126 57.4851 0167837 263.2762 94.9035 11.27571907137630 JAS 2 1 24278U 96046B 22222.48593817 .00000022 00000-0 55728-4 0 9998 2 24278 98.5154 238.7434 0351002 142.9689 219.6238 13.53118446282917 TECHSAT 1B 1 25397U 98043D 22222.40077871 .00000007 00000-0 22859-4 0 9991 2 25397 98.8205 173.0206 0000941 10.5593 349.5605 14.23764886251106 ISS (ZARYA) 1 25544U 98067A 22223.38425212 .00019798 00000-0 35202-3 0 9997 2 25544 51.6441 63.1520 0006113 113.1167 307.9498 15.50146888353749 PCSAT 1 26931U 01043C 22222.55915419 .00000045 00000-0 48784-4 0 9992 2 26931 67.0506 278.7415 0006900 257.8328 102.2001 14.30722661 89141 SAUDISAT 1C 1 27607U 02058C 22223.19613763 .00000395 00000-0 74666-4 0 9994 2 27607 64.5548 134.3730 0080639 283.9307 75.2837 14.76195728 56660 CUTE-1 1 27844U 03031E 22222.86979277 .00000169 00000-0 95419-4 0 9995 2 27844 98.6794 229.7352 0008890 309.6213 50.4180 14.22477647991640 CUBESAT XI 4 1 27848U 03031J 22222.84978329 .00000139 00000-0 82547-4 0 9999 2 27848 98.6838 230.2238 0009003 325.1597 34.8990 14.22031453991419 MOZHAYETS 4 1 27939U 03042A 22223.22171249 .00000601 00000-0 11494-3 0 9997 2 27939 98.1987 3.9492 0013607 40.2048 320.0173 14.67419990 9078 CUBESAT XI 5 1 28895U 05043F 22223.18183450 .00000553 00000-0 11344-3 0 9994 2 28895 98.1133 353.7390 0015874 333.2006 26.8375 14.64419722895655 CUTE-1.7+APD II 1 32785U 08021C 22223.17432196 .00001345 00000-0 14575-3 0 9998 2 32785 97.6614 192.3058 0014036 56.7361 303.5200 14.89742380774704 DELFI C3 1 32789U 08021G 22222.53442905 .00009821 00000-0 53078-3 0 9998 2 32789 97.3372 246.9091 0011944 130.7939 229.4332 15.14826571780116 SEEDS 1 32791U 08021J 22222.67063633 .00002323 00000-0 22904-3 0 9997 2 32791 97.6152 197.2536 0013135 17.0097 343.1561 14.92894696775284 YUBELEINY 1 32953U 08025A 22223.10687564 .00000024 00000-0 10000-3 0 9995 2 32953 82.5047 149.9578 0019599 137.6515 222.6083 12.43112456645124 PRISM (HITOMI) 1 33493U 09002B 22222.77813032 .00004262 00000-0 34527-3 0 9992 2 33493 98.2278 212.4414 0017131 8.4117 351.7388 15.00198627737126 KKS-1 (KISEKI) 1 33499U 09002H 22223.15170866 .00000463 00000-0 74897-4 0 9996 2 33499 98.2102 106.0866 0009895 134.0367 226.1658 14.76078952728741 SWISSCUBE 1 35932U 09051B 22222.83890192 .00000454 00000-0 11209-3 0 9996 2 35932 98.5630 80.2811 0006378 236.4757 123.5831 14.56920507684014 BEESAT 1 35933U 09051C 22222.24408561 .00000389 00000-0 97582-4 0 9993 2 35933 98.5570 81.2624 0004484 253.0128 107.0578 14.56929206684003 ITUPSAT 1 1 35935U 09051E 22222.29447705 .00000349 00000-0 90244-4 0 9997 2 35935 98.5670 81.3559 0006788 257.4920 102.5517 14.56033743683713 XIWANG-1 (HOPE-1) 1 36122U 09072B 22223.14567993 -.00000055 00000-0 -31882-4 0 9995 2 36122 100.1870 192.5076 0007025 211.2390 148.8307 13.16370862608119 TISAT 1 1 36799U 10035E 22222.53775178 .00002109 00000-0 20817-3 0 9999 2 36799 98.1777 75.1066 0010378 280.1251 79.8796 14.93094466656030 JUGNU 1 37839U 11058B 22223.22637993 .00000362 00000-0 51220-4 0 9992 2 37839 19.9597 203.2432 0019002 41.4056 68.7429 14.12797693560006 SRMSAT 1 37841U 11058D 22222.29716632 .00000350 00000-0 46959-4 0 9999 2 37841 19.9721 289.4557 0011682 215.1947 185.9226 14.10764694558857 M-CUBED/EXP-1 PRIME 1 37855U 11061F 22222.87172617 .00007473 00000-0 32513-3 0 9994 2 37855 101.7156 10.7983 0151411 259.1558 99.2586 15.13058139589464 HORYU 2 1 38340U 12025D 22222.21315778 .00000941 00000-0 14184-3 0 9997 2 38340 98.1931 301.4095 0012445 59.9590 300.2852 14.76754656540174 STRAND 1 1 39090U 13009E 22222.32586784 .00000158 00000-0 69821-4 0 9991 2 39090 98.4027 59.0505 0010213 108.4031 251.8266 14.35311841495123 SOMP 1 39134U 13015E 22222.45396451 .00011348 00000-0 39189-3 0 9997 2 39134 64.8593 244.4965 0035715 272.3661 87.3382 15.29715991515112 BEESAT 3 1 39135U 13015F 22222.78042164 .00007827 00000-0 31605-3 0 9995 2 39135 64.8655 280.8084 0039356 277.6423 82.0237 15.24741085514395 BEESAT 2 1 39136U 13015G 22223.19235856 .00006566 00000-0 27899-3 0 9993 2 39136 64.8744 287.9505 0020202 297.6298 62.2780 15.23716987514736 CUBEBUG 1 1 39153U 13018D 22223.07667675 .00001042 00000-0 13864-3 0 9991 2 39153 98.0168 333.1943 0017950 74.4298 285.8894 14.81760262501925 ZACUBE 1 39417U 13066B 22223.17588818 .00001045 00000-0 13316-3 0 9994 2 39417 97.6405 192.2197 0056402 224.1467 135.5239 14.82497929471231 TRITON 1 1 39427U 13066M 22222.89426685 .00001120 00000-0 18082-3 0 9995 2 39427 97.8133 156.3269 0113224 90.6288 270.7893 14.69067242466975 GOMX 1 1 39430U 13066Q 22223.20381218 .00000555 00000-0 10792-3 0 9998 2 39430 97.8045 127.2703 0147774 231.9987 126.7810 14.60296158464286 HUMSAT D 1 39433U 13066T 22222.71619724 .00003449 00000-0 32024-3 0 9999 2 39433 97.4502 231.3329 0030835 59.0234 301.4010 14.94662134473324 CUBEBUG 2 1 39440U 13066AA 22222.31063227 .00001360 00000-0 19024-3 0 9999 2 39440 97.7293 177.6164 0077523 317.7546 41.7708 14.77159208468232 FUNCUBE 1 1 39444U 13066AE 22223.15214543 .00001227 00000-0 15126-3 0 9996 2 39444 97.6284 194.6103 0055465 211.7835 148.0028 14.83607800470223 UWE-3 1 39446U 13066AG 22222.84781521 .00001119 00000-0 15032-3 0 9994 2 39446 97.6892 184.5764 0066837 272.1285 87.2275 14.79722340468504 SPROUT 1 39770U 14029E 22223.13804088 .00004133 00000-0 41926-3 0 9991 2 39770 97.9461 340.4474 0007496 268.2462 91.7936 14.91416754445815 UNISAT 6 1 40012U 14033C 22222.65572588 .00000821 00000-0 12624-3 0 9993 2 40012 97.6627 47.7268 0056980 345.0025 14.9493 14.75014777437970 DUCHIFAT 1 1 40021U 14033M 22222.69316665 .00002775 00000-0 27148-3 0 9996 2 40021 98.0148 173.8977 0011234 215.5185 144.5287 14.93148716442790 QB50P1 1 40025U 14033R 22222.22834883 .00001616 00000-0 17055-3 0 9995 2 40025 97.9613 160.0569 0010735 236.5514 123.4678 14.90687865441775 CHUBUSAT 1 1 40300U 14070C 22223.23623303 .00004153 00000-0 16318-3 0 9997 2 40300 97.1888 276.0281 0017846 329.5229 75.1741 15.26079674431004 NUDT-PHONESAT 1 40900U 15049B 22223.12717324 .00025017 00000-0 66259-3 0 9996 2 40900 97.3986 241.4787 0011356 93.6831 308.8596 15.38283086383014 ZDPS 2A 1 40901U 15049C 22222.84602193 .00009364 00000-0 37776-3 0 9991 2 40901 97.4587 231.4079 0012800 146.9796 213.2243 15.24950524381742 ZDPS 2B 1 40902U 15049D 22223.20435396 .00009153 00000-0 36667-3 0 9996 2 40902 97.4677 229.5129 0012557 144.0522 286.2830 15.25195735381773 XW-2A 1 40903U 15049E 22223.11354363 .00021409 00000-0 31447-3 0 9990 2 40903 97.1750 281.7899 0007084 275.8073 167.9298 15.55485770387751 KAITUO 1A 1 40904U 15049F 22223.20650554 .00003023 00000-0 15065-3 0 9992 2 40904 97.4959 225.2117 0013628 172.8472 249.5536 15.18247491381179 OBJECT G 1 40905U 15049G 22223.20198037 .00002350 00000-0 12282-3 0 9996 2 40905 97.5152 222.4119 0014772 176.9145 245.2194 15.16783165380915 XW-2C 1 40906U 15049H 22222.87177381 .00003885 00000-0 18572-3 0 9990 2 40906 97.4938 225.8665 0014149 162.3368 315.5328 15.19517821381181 XW-2D 1 40907U 15049J 22223.19023241 .00004827 00000-0 22526-3 0 9993 2 40907 97.4929 226.2133 0013702 156.7209 269.7871 15.20237571381289 LILACSAT 2 1 40908U 15049K 22223.20619420 .00002097 00000-0 11228-3 0 9990 2 40908 97.5180 223.2578 0015032 180.9695 240.6775 15.16044515380780 XW-2F 1 40910U 15049M 22223.23786057 .00007557 00000-0 31599-3 0 9996 2 40910 97.4741 230.0610 0014319 137.2617 282.4340 15.23791650381526 XW-2B 1 40911U 15049N 22223.15328603 .00004447 00000-0 20854-3 0 9994 2 40911 97.4925 226.7608 0013397 157.7232 266.8200 15.20117195381169 KAITUO 1B 1 40912U 15049P 22223.19414953 .00009115 00000-0 34556-3 0 9994 2 40912 97.4372 234.3643 0014363 105.9068 313.3434 15.27011884382103 TIANWANG 1A (TW-1A) 1 40928U 15051D 22223.13017499 .00049510 00000-0 52578-3 0 9999 2 40928 97.0359 245.4492 0008374 161.2922 242.0685 15.63881823386776 LAPAN A2 1 40931U 15052B 22223.15250379 .00000684 00000-0 60169-5 0 9998 2 40931 5.9953 138.8619 0012426 227.6687 132.1856 14.76838719371448 LQSAT 1 40958U 15057A 22223.14091983 .00000199 00000-0 37969-4 0 9997 2 40958 97.7465 266.8954 0018836 140.6757 219.5828 14.73402963368036 CHUBUSAT 2 1 41338U 16012B 22222.84628872 .00001455 00000-0 10304-3 0 9990 2 41338 31.0038 37.5187 0013448 332.2461 27.7457 15.01531434355662 CHUBUSAT 3 1 41339U 16012C 22223.16888704 .00001254 00000-0 87797-4 0 9997 2 41339 31.0123 32.3827 0013478 343.5302 16.4903 15.01597325355712 OUFTI-1 1 41458U 16025C 22222.42987914 .00011346 00000-0 46529-3 0 9994 2 41458 98.1896 33.1739 0140028 81.5368 280.1705 15.15813492345753 E-STAR-2 1 41459U 16025D 22223.14683284 .00012134 00000-0 50988-3 0 9998 2 41459 98.1904 32.4058 0143344 83.8423 277.9187 15.14632869345777 AAUSAT 4 1 41460U 16025E 22223.23477976 .00017660 00000-0 64563-3 0 9992 2 41460 98.1843 39.2252 0122432 57.9539 303.3529 15.21274103346267 NUSAT 1 1 41557U 16033B 22223.12964485 .00011381 00000-0 32859-3 0 9999 2 41557 97.3894 320.9655 0011078 174.2432 270.6900 15.35777183345771 BEESAT 4 1 41619U 16040W 22222.07530197 .00013783 00000-0 44295-3 0 9993 2 41619 97.2133 271.3059 0007250 285.5546 74.4896 15.32355702328930 PRATHAM 1 41783U 16059A 22222.58112061 .00000318 00000-0 69868-4 0 9991 2 41783 97.9102 261.9586 0033426 5.5109 354.6455 14.63398457313546 ALSAT 1N 1 41789U 16059G 22223.20617590 .00000268 00000-0 58713-4 0 9995 2 41789 97.9138 267.2586 0027869 346.5482 13.4977 14.64738726313880 NAYIF 1 1 42017U 17008BX 22222.13677172 .00014545 00000-0 41569-3 0 9991 2 42017 97.2663 287.5154 0005990 66.3068 293.8804 15.36075987305310 MAX VALIER SAT 1 42778U 17036P 22222.56925447 .00006518 00000-0 24279-3 0 9994 2 42778 97.2017 261.8255 0012330 128.7485 231.4858 15.27717970285168